CXA9527 RJFF-RKSI

Flight info

Callsign CXA9527
Flight time 1h 2m
Altitude 34000
Route HAKAT5 DGC G339 BEETL Y208 INVOK Z91 PSN Y782 BITUX Z53 BASEM Y685 GUKDO GUKD2E
Aircraft A320/M-SDE2E3FGHIJ1RWXY/M

Departure

Time 2026-05-07 14:17
Airport Fukuoka Airport (RJFF)

Arrival

Time 2026-05-07 15:19
Airport Incheon International Airport (RKSI)
Time Latitude Longitude Altitude Speed Heading
2026-05-07 13:50 33.58432 130.44595 43 ft 0 kts 240°
2026-05-07 13:58 33.58434 130.44600 43 ft 2 kts 240°
2026-05-07 13:58 33.58441 130.44615 43 ft 2 kts 240°
2026-05-07 13:58 33.58449 130.44630 43 ft 2 kts 240°
2026-05-07 13:58 33.58456 130.44646 43 ft 2 kts 240°
2026-05-07 13:59 33.58464 130.44663 43 ft 2 kts 240°
2026-05-07 13:59 33.58471 130.44678 43 ft 2 kts 240°
2026-05-07 13:59 33.58479 130.44693 43 ft 1 kts 240°
2026-05-07 13:59 33.58483 130.44704 43 ft 2 kts 234°
2026-05-07 14:00 33.58495 130.44714 43 ft 2 kts 208°
2026-05-07 14:00 33.58509 130.44720 43 ft 2 kts 187°
2026-05-07 14:00 33.58524 130.44720 43 ft 2 kts 166°
2026-05-07 14:00 33.58533 130.44717 43 ft 0 kts 152°
2026-05-07 14:01 33.58538 130.44713 43 ft 0 kts 149°
2026-05-07 14:04 33.58529 130.44719 43 ft 2 kts 149°
2026-05-07 14:05 33.58508 130.44734 43 ft 4 kts 149°
2026-05-07 14:05 33.58474 130.44759 43 ft 6 kts 149°
2026-05-07 14:05 33.58449 130.44777 43 ft 3 kts 149°
2026-05-07 14:05 33.58420 130.44797 43 ft 5 kts 148°
2026-05-07 14:06 33.58379 130.44826 43 ft 7 kts 149°
2026-05-07 14:06 33.58327 130.44864 43 ft 9 kts 149°
2026-05-07 14:06 33.58261 130.44908 43 ft 11 kts 152°
2026-05-07 14:06 33.58186 130.44955 43 ft 13 kts 151°
2026-05-07 14:07 33.58102 130.45012 43 ft 14 kts 149°
2026-05-07 14:07 33.58013 130.45076 43 ft 15 kts 150°
2026-05-07 14:07 33.57933 130.45160 43 ft 15 kts 86°
2026-05-07 14:07 33.57943 130.45189 43 ft 0 kts 63°
2026-05-07 14:14 33.57944 130.45193 43 ft 1 kts 63°
2026-05-07 14:14 33.57953 130.45210 43 ft 3 kts 45°
2026-05-07 14:14 33.57981 130.45210 43 ft 5 kts 341°
2026-05-07 14:14 33.58023 130.45193 43 ft 4 kts 328°
2026-05-07 14:15 33.58024 130.45192 43 ft 0 kts 326°
2026-05-07 14:16 33.58073 130.45154 43 ft 39 kts 327°
2026-05-07 14:16 33.58619 130.44789 44 ft 137 kts 332°
2026-05-07 14:16 33.59614 130.44132 535 ft 174 kts 332°
2026-05-07 14:17 33.60616 130.43451 1589 ft 170 kts 335°
2026-05-07 14:17 33.61649 130.42784 2443 ft 179 kts 336°
2026-05-07 14:17 33.62803 130.42056 3214 ft 197 kts 335°
2026-05-07 14:17 33.64057 130.41258 3990 ft 215 kts 334°
2026-05-07 14:18 33.65419 130.40387 4690 ft 239 kts 333°
2026-05-07 14:18 33.66933 130.39391 5527 ft 259 kts 330°
2026-05-07 14:18 33.68489 130.38156 6412 ft 279 kts 323°
2026-05-07 14:18 33.70049 130.36711 7397 ft 293 kts 322°
2026-05-07 14:19 33.71644 130.35188 8446 ft 296 kts 321°
2026-05-07 14:19 33.73255 130.33647 9248 ft 297 kts 321°
2026-05-07 14:19 33.74873 130.32101 9739 ft 297 kts 321°
2026-05-07 14:19 33.76486 130.30565 9984 ft 297 kts 321°
2026-05-07 14:20 33.78123 130.29004 10204 ft 305 kts 321°
2026-05-07 14:20 33.79846 130.27364 10792 ft 325 kts 321°
2026-05-07 14:20 33.81614 130.25682 11976 ft 327 kts 321°
2026-05-07 14:20 33.83360 130.24023 13109 ft 329 kts 320°
2026-05-07 14:21 33.85154 130.22314 14155 ft 333 kts 320°
2026-05-07 14:21 33.86971 130.20583 15153 ft 338 kts 320°
2026-05-07 14:21 33.88836 130.18803 16127 ft 343 kts 320°
2026-05-07 14:21 33.90694 130.17027 16978 ft 348 kts 320°
2026-05-07 14:22 33.93244 130.14589 17701 ft 351 kts 320°
2026-05-07 14:22 33.94497 130.13391 17878 ft 352 kts 320°
2026-05-07 14:22 33.96417 130.11557 17928 ft 352 kts 320°
2026-05-07 14:22 33.98344 130.09714 18176 ft 356 kts 320°
2026-05-07 14:23 34.00308 130.07837 18914 ft 366 kts 320°
2026-05-07 14:23 34.02323 130.05905 19663 ft 374 kts 320°
2026-05-07 14:23 34.04372 130.03943 20408 ft 382 kts 320°
2026-05-07 14:23 34.06460 130.01941 21157 ft 388 kts 320°
2026-05-07 14:24 34.08583 129.99907 21907 ft 394 kts 320°
2026-05-07 14:24 34.10732 129.97842 22658 ft 398 kts 319°
2026-05-07 14:24 34.12907 129.95755 23413 ft 402 kts 319°
2026-05-07 14:24 34.15119 129.93630 24180 ft 405 kts 319°
2026-05-07 14:25 34.17322 129.91513 24943 ft 408 kts 319°
2026-05-07 14:25 34.19511 129.89404 25710 ft 409 kts 319°
2026-05-07 14:25 34.21758 129.87241 26493 ft 410 kts 319°
2026-05-07 14:25 34.23978 129.85098 27262 ft 412 kts 319°
2026-05-07 14:26 34.26225 129.82932 27922 ft 417 kts 319°
2026-05-07 14:26 34.28503 129.80751 28578 ft 421 kts 319°
2026-05-07 14:26 34.30800 129.78561 29233 ft 424 kts 319°
2026-05-07 14:26 34.33129 129.76340 29837 ft 429 kts 319°
2026-05-07 14:27 34.35475 129.74101 30297 ft 434 kts 319°
2026-05-07 14:27 34.37855 129.71828 30756 ft 438 kts 319°
2026-05-07 14:27 34.40239 129.69547 31210 ft 442 kts 318°
2026-05-07 14:27 34.42651 129.67235 31681 ft 444 kts 318°
2026-05-07 14:28 34.45075 129.64912 32183 ft 445 kts 317°
2026-05-07 14:28 34.47491 129.62601 32726 ft 443 kts 317°
2026-05-07 14:28 34.49892 129.60294 33285 ft 441 kts 316°
2026-05-07 14:28 34.52295 129.57985 33712 ft 442 kts 316°
2026-05-07 14:29 34.54721 129.55643 33925 ft 448 kts 316°
2026-05-07 14:29 34.57184 129.53259 33960 ft 459 kts 316°
2026-05-07 14:29 34.59698 129.50825 33975 ft 466 kts 317°
2026-05-07 14:30 34.64752 129.45950 33971 ft 468 kts 317°
2026-05-07 14:30 34.69867 129.41007 33985 ft 468 kts 317°
2026-05-07 14:31 34.74917 129.36114 33976 ft 468 kts 317°
2026-05-07 14:31 34.80009 129.31180 33980 ft 468 kts 317°
2026-05-07 14:32 34.85108 129.26262 33946 ft 467 kts 317°
2026-05-07 14:32 34.89939 129.21564 33979 ft 476 kts 321°
2026-05-07 14:33 34.95141 129.16553 33998 ft 478 kts 321°
2026-05-07 14:33 35.00346 129.11514 34002 ft 478 kts 321°
2026-05-07 14:34 35.05563 129.06444 34003 ft 478 kts 321°
2026-05-07 14:34 35.10901 129.01575 34003 ft 478 kts 326°
2026-05-07 14:35 35.16596 128.97412 34003 ft 478 kts 332°
2026-05-07 14:35 35.22586 128.93803 34003 ft 478 kts 334°
2026-05-07 14:36 35.28571 128.90289 34003 ft 478 kts 334°
2026-05-07 14:36 35.34575 128.86746 34003 ft 478 kts 334°
2026-05-07 14:37 35.40530 128.83217 34003 ft 478 kts 334°
2026-05-07 14:37 35.49500 128.77887 34003 ft 478 kts 334°
2026-05-07 14:38 35.55481 128.74329 34003 ft 478 kts 334°
2026-05-07 14:38 35.61464 128.70758 34003 ft 478 kts 334°
2026-05-07 14:39 35.67470 128.67166 33870 ft 474 kts 334°
2026-05-07 14:39 35.73294 128.63670 33404 ft 465 kts 333°
2026-05-07 14:40 35.76118 128.61801 32910 ft 465 kts 330°
2026-05-07 14:40 35.78910 128.59708 32406 ft 466 kts 327°
2026-05-07 14:40 35.81561 128.57465 31912 ft 467 kts 324°
2026-05-07 14:40 35.84119 128.55037 31415 ft 468 kts 321°
2026-05-07 14:41 35.86602 128.52400 30912 ft 469 kts 317°
2026-05-07 14:41 35.88963 128.49655 30417 ft 470 kts 316°
2026-05-07 14:41 35.91296 128.46880 30062 ft 470 kts 316°
2026-05-07 14:41 35.93667 128.44045 30004 ft 471 kts 316°
2026-05-07 14:42 35.98340 128.38458 30003 ft 471 kts 316°
2026-05-07 14:42 36.03070 128.32808 30003 ft 471 kts 315°
2026-05-07 14:43 36.07798 128.27155 30002 ft 477 kts 315°
2026-05-07 14:43 36.12582 128.21426 30003 ft 477 kts 315°
2026-05-07 14:44 36.17341 128.15714 30003 ft 477 kts 315°
2026-05-07 14:44 36.22083 128.10013 30003 ft 477 kts 315°
2026-05-07 14:45 36.27317 128.05077 30001 ft 477 kts 331°
2026-05-07 14:45 36.33555 128.02267 30002 ft 477 kts 348°
2026-05-07 14:46 36.40128 128.01236 30003 ft 477 kts 354°
2026-05-07 14:46 36.43405 128.00821 29637 ft 474 kts 354°
2026-05-07 14:46 36.46695 128.00400 29137 ft 473 kts 354°
2026-05-07 14:47 36.49952 127.99970 28641 ft 474 kts 354°
2026-05-07 14:47 36.53260 127.99523 28177 ft 477 kts 354°
2026-05-07 14:47 36.56553 127.99074 28005 ft 480 kts 354°
2026-05-07 14:47 36.59902 127.98617 28003 ft 481 kts 354°
2026-05-07 14:48 36.66554 127.97708 28002 ft 481 kts 354°
2026-05-07 14:48 36.73182 127.96800 28001 ft 479 kts 354°
2026-05-07 14:49 36.76415 127.96356 28002 ft 457 kts 354°
2026-05-07 14:49 36.79527 127.95929 28004 ft 433 kts 354°
2026-05-07 14:49 36.82426 127.95412 27991 ft 414 kts 345°
2026-05-07 14:49 36.84999 127.93921 27811 ft 410 kts 323°
2026-05-07 14:50 36.86943 127.91389 27449 ft 406 kts 306°
2026-05-07 14:50 36.88485 127.88474 27080 ft 404 kts 302°
2026-05-07 14:50 36.89998 127.85501 26702 ft 401 kts 303°
2026-05-07 14:50 36.91528 127.82620 26329 ft 399 kts 304°
2026-05-07 14:51 36.93082 127.79791 25957 ft 396 kts 305°
2026-05-07 14:51 36.94650 127.76990 25584 ft 394 kts 305°
2026-05-07 14:51 36.96235 127.74174 25205 ft 392 kts 305°
2026-05-07 14:51 36.97793 127.71406 24718 ft 389 kts 305°
2026-05-07 14:52 36.99337 127.68656 24219 ft 386 kts 305°
2026-05-07 14:52 37.00864 127.65935 23721 ft 383 kts 305°
2026-05-07 14:52 37.02380 127.63235 23222 ft 380 kts 305°
2026-05-07 14:52 37.03891 127.60558 22723 ft 377 kts 305°
2026-05-07 14:53 37.05409 127.57874 22219 ft 374 kts 305°
2026-05-07 14:53 37.06896 127.55244 21721 ft 371 kts 305°
2026-05-07 14:53 37.08373 127.52631 21222 ft 368 kts 305°
2026-05-07 14:53 37.09893 127.50074 20716 ft 365 kts 313°
2026-05-07 14:54 37.11876 127.48146 20210 ft 362 kts 333°
2026-05-07 14:54 37.14187 127.46929 19718 ft 360 kts 340°
2026-05-07 14:54 37.16534 127.45890 19175 ft 358 kts 341°
2026-05-07 14:54 37.18887 127.44881 18456 ft 361 kts 341°
2026-05-07 14:55 37.21281 127.43860 17727 ft 363 kts 341°
2026-05-07 14:55 37.23671 127.42841 17002 ft 364 kts 341°
2026-05-07 14:55 37.26058 127.41822 16280 ft 365 kts 341°
2026-05-07 14:55 37.28315 127.40436 15569 ft 364 kts 324°
2026-05-07 14:56 37.30016 127.38158 15121 ft 355 kts 302°
2026-05-07 14:56 37.30871 127.35355 14997 ft 338 kts 279°
2026-05-07 14:56 37.30810 127.32448 14951 ft 336 kts 257°
2026-05-07 14:56 37.29901 127.29784 14709 ft 334 kts 237°
2026-05-07 14:57 37.28528 127.27405 14256 ft 333 kts 232°
2026-05-07 14:57 37.27103 127.25147 13758 ft 330 kts 231°
2026-05-07 14:57 37.25675 127.22921 13258 ft 327 kts 231°
2026-05-07 14:57 37.24259 127.20718 12759 ft 324 kts 231°
2026-05-07 14:58 37.22857 127.18537 12261 ft 321 kts 231°
2026-05-07 14:58 37.21460 127.16367 11760 ft 319 kts 231°
2026-05-07 14:58 37.20071 127.14207 11269 ft 316 kts 231°
2026-05-07 14:58 37.18704 127.12080 11014 ft 314 kts 231°
2026-05-07 14:59 37.17331 127.09946 10966 ft 316 kts 231°
2026-05-07 14:59 37.15971 127.07832 10610 ft 314 kts 231°
2026-05-07 14:59 37.14604 127.05706 10235 ft 312 kts 231°
2026-05-07 14:59 37.13251 127.03603 9861 ft 310 kts 231°
2026-05-07 15:00 37.11902 127.01505 9486 ft 309 kts 231°
2026-05-07 15:00 37.10559 126.99416 9124 ft 307 kts 231°
2026-05-07 15:00 37.09223 126.97338 9004 ft 306 kts 231°
2026-05-07 15:00 37.07887 126.95261 9002 ft 306 kts 231°
2026-05-07 15:01 37.06633 126.93106 8994 ft 307 kts 242°
2026-05-07 15:01 37.06023 126.90568 8712 ft 306 kts 266°
2026-05-07 15:01 37.06310 126.87968 8398 ft 304 kts 291°
2026-05-07 15:01 37.07436 126.85770 8100 ft 302 kts 314°
2026-05-07 15:02 37.08977 126.84024 7808 ft 301 kts 320°
2026-05-07 15:02 37.10596 126.82360 7507 ft 300 kts 321°
2026-05-07 15:02 37.12227 126.80719 7206 ft 298 kts 321°
2026-05-07 15:02 37.13850 126.79092 7011 ft 297 kts 321°
2026-05-07 15:03 37.15447 126.77491 7004 ft 298 kts 321°
2026-05-07 15:03 37.17073 126.75860 6884 ft 298 kts 321°
2026-05-07 15:03 37.18686 126.74241 6585 ft 296 kts 321°
2026-05-07 15:03 37.20269 126.72652 6283 ft 287 kts 321°
2026-05-07 15:04 37.21814 126.71101 5980 ft 277 kts 321°
2026-05-07 15:04 37.23254 126.69656 5677 ft 257 kts 321°
2026-05-07 15:04 37.24602 126.68301 5372 ft 240 kts 321°
2026-05-07 15:04 37.25881 126.67017 5087 ft 234 kts 321°
2026-05-07 15:05 37.27131 126.65761 5001 ft 224 kts 321°
2026-05-07 15:05 37.28342 126.64543 5001 ft 225 kts 321°
2026-05-07 15:05 37.29573 126.63306 5001 ft 225 kts 321°
2026-05-07 15:05 37.30868 126.62193 4992 ft 225 kts 339°
2026-05-07 15:06 37.32397 126.61977 4994 ft 225 kts 12°
2026-05-07 15:06 37.33792 126.62864 4997 ft 225 kts 45°
2026-05-07 15:06 37.34558 126.64543 4999 ft 225 kts 78°
2026-05-07 15:06 37.34707 126.66490 5005 ft 226 kts 89°
2026-05-07 15:07 37.34706 126.68456 5002 ft 225 kts 91°
2026-05-07 15:07 37.34678 126.70441 5001 ft 225 kts 91°
2026-05-07 15:07 37.34645 126.72402 5001 ft 225 kts 91°
2026-05-07 15:07 37.34591 126.74355 4999 ft 225 kts 98°
2026-05-07 15:08 37.34010 126.76157 4993 ft 225 kts 129°
2026-05-07 15:08 37.32901 126.77537 5002 ft 225 kts 139°
2026-05-07 15:08 37.31684 126.78809 5001 ft 225 kts 141°
2026-05-07 15:08 37.30470 126.80039 5001 ft 225 kts 141°
2026-05-07 15:09 37.29247 126.81271 5001 ft 225 kts 141°
2026-05-07 15:09 37.27963 126.82430 4985 ft 226 kts 155°
2026-05-07 15:09 37.26443 126.82790 4707 ft 226 kts 187°
2026-05-07 15:09 37.24997 126.82112 4414 ft 224 kts 211°
2026-05-07 15:10 37.23685 126.81025 4112 ft 223 kts 215°
2026-05-07 15:10 37.22433 126.79896 3815 ft 223 kts 216°
2026-05-07 15:10 37.21180 126.78752 3610 ft 218 kts 216°
2026-05-07 15:10 37.19955 126.77631 3604 ft 220 kts 216°
2026-05-07 15:11 37.18705 126.76485 3602 ft 221 kts 216°
2026-05-07 15:11 37.17530 126.75265 3594 ft 221 kts 232°
2026-05-07 15:11 37.16943 126.73528 3595 ft 221 kts 265°
2026-05-07 15:11 37.17159 126.71621 3604 ft 221 kts 287°
2026-05-07 15:12 37.17659 126.69809 3603 ft 221 kts 290°
2026-05-07 15:12 37.18208 126.68023 3602 ft 221 kts 294°
2026-05-07 15:12 37.19121 126.66479 3592 ft 221 kts 325°
2026-05-07 15:12 37.20483 126.65615 3603 ft 221 kts 339°
2026-05-07 15:13 37.21919 126.64955 3602 ft 221 kts 341°
2026-05-07 15:13 37.23385 126.64323 3601 ft 221 kts 341°
2026-05-07 15:13 37.24843 126.63728 3601 ft 221 kts 343°
2026-05-07 15:13 37.26302 126.63142 3600 ft 221 kts 338°
2026-05-07 15:14 37.27693 126.62286 3601 ft 221 kts 329°
2026-05-07 15:14 37.28989 126.61266 3601 ft 221 kts 326°
2026-05-07 15:14 37.30273 126.60165 3574 ft 221 kts 325°
2026-05-07 15:14 37.31524 126.59055 3372 ft 221 kts 324°
2026-05-07 15:15 37.32770 126.57938 3080 ft 221 kts 324°
2026-05-07 15:15 37.34014 126.56823 2788 ft 219 kts 324°
2026-05-07 15:15 37.35215 126.55749 2496 ft 203 kts 324°
2026-05-07 15:15 37.36328 126.54755 2231 ft 192 kts 324°
2026-05-07 15:16 37.37400 126.53800 2024 ft 180 kts 325°
2026-05-07 15:16 37.38364 126.52943 1848 ft 163 kts 325°
2026-05-07 15:16 37.39257 126.52146 1595 ft 150 kts 325°
2026-05-07 15:16 37.40070 126.51423 1365 ft 138 kts 325°
2026-05-07 15:17 37.40823 126.50751 1161 ft 127 kts 325°
2026-05-07 15:17 37.41541 126.50113 1006 ft 127 kts 325°
2026-05-07 15:17 37.42257 126.49468 857 ft 127 kts 324°
2026-05-07 15:17 37.42974 126.48800 708 ft 126 kts 323°
2026-05-07 15:18 37.43680 126.48154 560 ft 126 kts 327°
2026-05-07 15:18 37.44415 126.47546 318 ft 125 kts 326°
2026-05-07 15:18 37.45123 126.46921 176 ft 125 kts 324°
2026-05-07 15:18 37.45829 126.46292 50 ft 120 kts 326°
2026-05-07 15:19 37.46403 126.45787 24 ft 64 kts 325°
2026-05-07 15:19 37.46653 126.45564 27 ft 39 kts 324°
2026-05-07 15:19 37.46870 126.45370 29 ft 36 kts 325°
2026-05-07 15:19 37.47062 126.45200 33 ft 32 kts 325°
2026-05-07 15:20 37.47239 126.45042 35 ft 29 kts 324°
2026-05-07 15:20 37.47390 126.44875 34 ft 28 kts 304°
2026-05-07 15:20 37.47457 126.44724 33 ft 9 kts 291°
2026-05-07 15:20 37.47486 126.44627 31 ft 12 kts 283°
2026-05-07 15:21 37.47414 126.44595 32 ft 12 kts 186°
2026-05-07 15:21 37.47355 126.44563 33 ft 0 kts 232°
2026-05-07 15:21 37.47355 126.44562 33 ft 0 kts 232°
2026-05-07 15:23 37.47355 126.44561 33 ft 0 kts 232°
2026-05-07 15:24 37.47349 126.44552 33 ft 2 kts 232°
2026-05-07 15:24 37.47331 126.44524 33 ft 6 kts 232°
2026-05-07 15:24 37.47292 126.44460 34 ft 11 kts 233°
2026-05-07 15:24 37.47241 126.44362 34 ft 14 kts 238°
2026-05-07 15:25 37.47213 126.44309 33 ft 0 kts 233°
2026-05-07 15:26 37.47207 126.44299 33 ft 3 kts 233°
2026-05-07 15:26 37.47206 126.44297 33 ft 0 kts 233°
2026-05-07 15:27 37.47201 126.44289 33 ft 2 kts 233°
2026-05-07 15:27 37.47181 126.44256 32 ft 6 kts 233°
2026-05-07 15:27 37.47153 126.44202 32 ft 8 kts 239°
2026-05-07 15:27 37.47114 126.44124 30 ft 12 kts 238°
2026-05-07 15:28 37.47046 126.44011 19 ft 20 kts 238°
2026-05-07 15:28 37.47056 126.43920 16 ft 2 kts 321°
2026-05-07 15:28 37.47063 126.43913 16 ft 2 kts 321°
2026-05-07 15:28 37.47067 126.43909 16 ft 0 kts 321°
2026-05-07 15:29 37.47071 126.43904 16 ft 2 kts 321°
2026-05-07 15:29 37.47090 126.43885 16 ft 4 kts 321°
2026-05-07 15:29 37.47124 126.43853 15 ft 7 kts 324°
2026-05-07 15:29 37.47174 126.43811 15 ft 9 kts 327°
2026-05-07 15:30 37.47212 126.43750 15 ft 10 kts 247°
2026-05-07 15:30 37.47168 126.43675 15 ft 6 kts 237°
2026-05-07 15:30 37.47166 126.43673 15 ft 0 kts 237°